Marrakech, Morocco

5:21 AM WET on January 23, 2017 (GMT +0000)
Marrakech

Weather History for 60230 - October, 2012

Change the Weather History Date:

Tuesday, October 16, 2012

  Actual Average Record
Temperature  
Mean Temperature 74 °F -  
Max Temperature 90 °F 75 °F - ()
Min Temperature 59 °F 53 °F - ()
Cooling Degree Days 10    
Growing Degree Days 24 (Base 50)    
Moisture  
Dew Point 49 °F    
Average Humidity 43    
Maximum Humidity 77    
Minimum Humidity 13    
Precipitation  
Precipitation 0.00 in 0.04 in - ()
Sea Level Pressure  
Sea Level Pressure 29.93 in    
Wind  
Wind Speed 5 mph ()    
Max Wind Speed 8 mph    
Max Gust Speed -    
Visibility 6.1 miles    
Events      
T = Trace of Precipitation, MM = Missing Value Source: Averaged Metar Reports

Daily Weather History Graph

Daily Weather History Graph

Search for Another Location

Airport or City:

Trip Planner

Search our weather history database for the weather conditions in past years. The results will help you decide how hot, cold, wet, or windy it might be!

Date:

Astronomy

Oct. 16, 2012 Rise Set
Actual Time 6:36 AM WET 5:58 PM WET
Civil Twilight 6:11 AM WET 6:23 PM WET
Nautical Twilight 5:43 AM WET 6:51 PM WET
Astronomical Twilight 5:15 AM WET 7:19 PM WET
Moon 7:35 AM WET (10/16) 6:40 PM WET (10/16)
Length of Visible Light 12h 11m
Length of Day
11h 22m
New Moon, 1% of the Moon is Illuminated
Oct 16
New Moon
Oct 22
First Quarter
Oct 29
Full
Nov 7
Last Quarter
Nov 13
New

Hourly Weather History & Observations

Time (WET) Temp. Dew Point Humidity Pressure Visibility Wind Dir Wind Speed Gust Speed Precip Events Conditions
12:00 AM 65 °F 51 °F 52% 29.94 in 6 mi ENE 6.9 mph - -  
12:00 AM 66.2 °F 51.8 °F 60% 29.98 in - East 6.9 mph - N/A   Clear
1:00 AM 64.4 °F 51.8 °F 64% 29.95 in - East 6.9 mph - N/A   Clear
1:30 AM 64.4 °F 51.8 °F 64% 29.95 in - ENE 6.9 mph - N/A   Clear
2:00 AM 62.6 °F 51.8 °F 68% 29.95 in - ENE 5.8 mph - N/A   Clear
2:30 AM 62.6 °F 51.8 °F 68% 29.95 in - East 6.9 mph - N/A   Clear
3:00 AM 62 °F 51 °F 58% 29.91 in 6 mi ENE 5.8 mph - -  
3:00 AM 62.6 °F 51.8 °F 68% 29.95 in - ENE 5.8 mph - N/A   Clear
3:30 AM 62.6 °F 51.8 °F 68% 29.95 in - East 5.8 mph - N/A   Clear
4:00 AM 62.6 °F 51.8 °F 68% 29.92 in - East 6.9 mph - N/A   Clear
4:30 AM 60.8 °F 51.8 °F 72% 29.92 in - East 8.1 mph - N/A   Clear
5:00 AM 60.8 °F 51.8 °F 72% 29.95 in - East 6.9 mph - N/A   Clear
5:30 AM 60.8 °F 50.0 °F 68% 29.95 in - East 5.8 mph - N/A   Clear
6:00 AM 60 °F 50 °F 62% 29.93 in 6 mi East 5.8 mph - -  
6:00 AM 60.8 °F 50.0 °F 68% 29.95 in - East 5.8 mph - N/A   Clear
6:30 AM 59.0 °F 50.0 °F 72% 29.95 in - East 5.8 mph - N/A   Clear
7:00 AM 59.0 °F 51.8 °F 77% 29.95 in - East 5.8 mph - N/A   Clear
7:30 AM 62.6 °F 51.8 °F 68% 29.95 in - East 6.9 mph - N/A   Clear
8:00 AM 64.4 °F 51.8 °F 64% 29.98 in - ESE 5.8 mph - N/A   Clear
8:30 AM 68.0 °F 51.8 °F 56% 29.98 in - Variable 2.3 mph - N/A   Clear
9:00 AM 71 °F 52 °F 40% 29.94 in 6 mi ENE 3.5 mph - -  
9:00 AM 71.6 °F 51.8 °F 50% 29.98 in - Variable 1.2 mph - N/A   Clear
9:30 AM 73.4 °F 53.6 °F 50% 30.01 in - ENE 3.5 mph - N/A   Clear
10:00 AM 73.4 °F 51.8 °F 47% 30.01 in - NE 4.6 mph - N/A   Clear
10:30 AM 75.2 °F 53.6 °F 47% 30.01 in - ENE 4.6 mph - N/A   Clear
11:00 AM 78.8 °F 51.8 °F 39% 29.98 in - ENE 5.8 mph - N/A   Clear
11:30 AM 80.6 °F 51.8 °F 37% 29.98 in - NE 6.9 mph - N/A   Clear
12:00 PM 82 °F 50 °F 23% 29.88 in 6 mi ENE 4.6 mph - -  
12:00 PM 80.6 °F 50.0 °F 34% 29.98 in - ENE 4.6 mph - N/A   Clear
12:30 PM 82.4 °F 48.2 °F 30% 29.95 in - ENE 5.8 mph - N/A   Clear
1:00 PM 84.2 °F 46.4 °F 27% 29.92 in - East 6.9 mph - N/A   Clear
1:30 PM 86.0 °F 44.6 °F 23% 29.92 in 6.2 mi ENE 5.8 mph - N/A   Partly Cloudy
2:00 PM 86.0 °F 44.6 °F 23% 29.89 in 6.2 mi NE 5.8 mph - N/A   Partly Cloudy
2:30 PM 89.6 °F 46.4 °F 22% 29.89 in 6.2 mi Variable 3.5 mph - N/A   Partly Cloudy
3:00 PM 89 °F 45 °F 13% 29.79 in 6 mi NNE 6.9 mph - -   Scattered Clouds
3:00 PM 89.6 °F 44.6 °F 21% 29.89 in 6.2 mi NNW 5.8 mph - N/A   Partly Cloudy
3:30 PM 89.6 °F 44.6 °F 21% 29.89 in 6.2 mi Variable 3.5 mph - N/A   Partly Cloudy
4:00 PM 89.6 °F 46.4 °F 22% 29.89 in 6.2 mi Variable 3.5 mph - N/A   Partly Cloudy
4:30 PM 89.6 °F 48.2 °F 24% 29.89 in 6.2 mi NW 4.6 mph - N/A   Partly Cloudy
5:00 PM 89.6 °F 48.2 °F 24% 29.89 in 6.2 mi NNW 6.9 mph - N/A   Partly Cloudy
5:30 PM 87.8 °F 46.4 °F 24% 29.89 in 6.2 mi NNW 6.9 mph - N/A   Partly Cloudy
6:00 PM 86 °F 46 °F 15% 29.81 in 6 mi NNW 5.8 mph - -   Scattered Clouds
6:00 PM 86.0 °F 46.4 °F 25% 29.89 in 6.2 mi NNW 5.8 mph - N/A   Partly Cloudy
6:30 PM 84.2 °F 46.4 °F 27% 29.92 in 6.2 mi North 4.6 mph - N/A   Partly Cloudy
7:00 PM 82.4 °F 44.6 °F 26% 29.92 in - NNE 5.8 mph - N/A   Clear
7:30 PM 80.6 °F 46.4 °F 30% 29.92 in - NNE 4.6 mph - N/A   Clear
8:00 PM 78.8 °F 46.4 °F 32% 29.92 in - East 4.6 mph - N/A   Clear
8:30 PM 77.0 °F 44.6 °F 32% 29.95 in - East 5.8 mph - N/A   Clear
9:00 PM 76 °F 46 °F 23% 29.88 in 6 mi East 5.8 mph - -  
9:00 PM 77.0 °F 46.4 °F 34% 29.95 in - East 6.9 mph - N/A   Clear
9:30 PM 77.0 °F 46.4 °F 34% 29.95 in - ESE 5.8 mph - N/A   Clear
10:00 PM 77.0 °F 46.4 °F 34% 29.95 in - SE 5.8 mph - N/A   Clear
10:30 PM 75.2 °F 46.4 °F 36% 29.95 in - ESE 4.6 mph - N/A   Clear
11:00 PM 73.4 °F 46.4 °F 38% 29.95 in - East 3.5 mph - N/A   Clear
11:30 PM 71.6 °F 48.2 °F 43% 29.95 in - Variable 2.3 mph - N/A   Clear